Starlink 32550

operational
NORAD ID: 62131 Int'l Des: 2024-222 Owner: SPXS Country: US Constellation: starlink
LEOCIRCULAR

About Starlink 32550

Description loading...

Live Position

Loading 3D Globe...

Upcoming Passes

Altitude History

Altitude vs Time

uPlot chart will show altitude changes over time

Two-Line Element Set

1 62131U 24222T 25350.43649816 .00010615 00000-0 39447-3 0 9994
2 62131 42.9986 246.5998 0000758 314.3244 45.7545 15.27598304 60063
Epoch: Dec 16, 2025 • Age: 18 hours

Current Status

Altitude 493.2 km
Velocity 7.62 km/s
Sub-Earth Point -35.91°S, 44.89°W
Launch Date Nov 27, 2024
Age 1 years
Type internet

Technical Details

Classification Payload
Mass 730.00 kg
Dry Mass 700.00 kg
Total Mass 730.00 kg
Length 0.30 m
Diameter 4.10 m
Span 29.00 m
Shape Box + pan
Manufacturer SPXS
Bus Type Starlink V2M
Phase Status In Orbit
Owner/State SPXS/US

Large Constellations

Loading constellations...